GW1418 Weather Reports


Display with metric or nautical units.
time (UTC)temp
F
wind
direction
speed
MPH
gust
MPH
rain 1hr
in
rain 24hr
in
rain mn
in
humidity
%
barometer
mb
20260906220704 99 120 2.0 3.0 0.00 0.00 0.00 38 1012.4
20260906220159 98 141 2.0 3.0 0.00 0.00 0.00 39 1012.4
20260906215658 100 121 5.0 8.0 0.00 0.00 0.00 38 1012.4
20260906215157 101 154 5.0 8.0 0.00 0.00 0.00 38 1012.4
20260906214655 101 116 6.0 7.0 0.00 0.00 0.00 38 1012.4
20260906214150 98 149 1.0 2.0 0.00 0.00 0.00 39 1012.7
20260906213650 98 130 5.0 6.0 0.00 0.00 0.00 40 1012.7
20260906213144 100 131 5.0 6.0 0.00 0.00 0.00 38 1012.7
20260906212642 103 120 11.0 14.0 0.00 0.00 0.00 37 1012.7
20260906212137 102 156 4.0 6.0 0.00 0.00 0.00 36 1013.1
20260906211637 101 143 2.0 3.0 0.00 0.00 0.00 36 1013.1
20260906211132 99 151 3.0 3.0 0.00 0.00 0.00 39 1013.1
20260906210628 100 135 5.0 8.0 0.00 0.00 0.00 37 1012.7
20260906210123 102 113 5.0 8.0 0.00 0.00 0.00 38 1013.4
20260906205618 103 143 5.0 5.0 0.00 0.00 0.00 37 1013.1
20260906205114 101 157 1.0 1.0 0.00 0.00 0.00 37 1013.1
20260906204613 100 133 3.0 6.0 0.00 0.00 0.00 38 1012.7
20260906204108 102 131 5.0 7.0 0.00 0.00 0.00 36 1013.4
20260906203608 101 151 2.0 2.0 0.00 0.00 0.00 36 1013.1
20260906203103 100 109 4.0 6.0 0.00 0.00 0.00 39 1013.4
20260906202600 102 131 4.0 7.0 0.00 0.00 0.00 38 1013.4
20260906202059 102 154 2.0 5.0 0.00 0.00 0.00 37 1013.4
20260906201554 98 154 0.0 1.0 0.00 0.00 0.00 41 1013.4
20260906201053 97 107 4.0 7.0 0.00 0.00 0.00 42 1013.4
20260906200549 98 129 2.0 2.0 0.00 0.00 0.00 41 1013.7
20260906200045 100 152 2.0 5.0 0.00 0.00 0.00 39 1013.7
20260906195540 102 127 3.0 5.0 0.00 0.00 0.00 38 1013.7
20260906195037 101 147 1.0 2.0 0.00 0.00 0.00 39 1013.7
20260906194532 102 108 5.0 6.0 0.00 0.00 0.00 39 1013.4
20260906194028 99 173 1.0 1.0 0.00 0.00 0.00 40 1013.7
20260906193527 99 141 7.0 10.0 0.00 0.00 0.00 41 1014.1
20260906193023 98 125 6.0 10.0 0.00 0.00 0.00 40 1013.7
20260906192518 99 191 5.0 6.0 0.00 0.00 0.00 40 1014.1
20260906192017 99 143 2.0 2.0 0.00 0.00 0.00 42 1014.1
20260906191513 100 152 1.0 1.0 0.00 0.00 0.00 42 1014.1
20260906191012 98 107 5.0 7.0 0.00 0.00 0.00 42 1014.1
20260906190511 98 127 5.0 9.0 0.00 0.00 0.00 44 1014.5
20260906190006 98 138 8.0 11.0 0.00 0.00 0.00 43 1014.1
20260906185505 99 139 7.0 8.0 0.00 0.00 0.00 41 1014.5
20260906185004 97 123 3.0 3.0 0.00 0.00 0.00 43 1014.5
20260906184459 102 124 5.0 6.0 0.00 0.00 0.00 41 1014.5
20260906183955 100 107 7.0 8.0 0.00 0.00 0.00 42 1014.5
20260906183451 97 210 3.0 3.0 0.00 0.00 0.00 44 1014.8
20260906182946 97 162 6.0 7.0 0.00 0.00 0.00 45 1014.8
20260906182442 99 108 5.0 7.0 0.00 0.00 0.00 44 1014.8
20260906181937 103 147 1.0 1.0 0.00 0.00 0.00 39 1015.2
20260906181433 99 157 0.0 0.0 0.00 0.00 0.00 41 1014.8
20260906180928 95 162 2.0 2.0 0.00 0.00 0.00 46 1015.2
20260906180423 97 145 2.0 2.0 0.00 0.00 0.00 46 1015.2
20260906175921 98 149 5.0 7.0 0.00 0.00 0.00 43 1015.5
20260906175416 99 157 1.0 1.0 0.00 0.00 0.00 44 1015.2
20260906174914 97 121 7.0 8.0 0.00 0.00 0.00 44 1015.5
20260906174414 98 122 6.0 8.0 0.00 0.00 0.00 45 1015.9
20260906173909 97 109 3.0 3.0 0.00 0.00 0.00 44 1015.5
20260906173404 96 152 5.0 8.0 0.00 0.00 0.00 45 1015.9
20260906172904 96 140 5.0 6.0 0.00 0.00 0.00 44 1015.9
20260906172400 97 152 9.0 10.0 0.00 0.00 0.00 45 1015.9
20260906171855 100 140 8.0 11.0 0.00 0.00 0.00 43 1016.2
20260906171350 101 154 0.0 1.0 0.00 0.00 0.00 40 1016.2
20260906170845 101 116 2.0 3.0 0.00 0.00 0.00 41 1015.9
20260906170341 99 154 1.0 2.0 0.00 0.00 0.00 42 1016.2
20260906165837 98 90 4.0 5.0 0.00 0.00 0.00 43 1016.2
20260906165336 98 147 2.0 3.0 0.00 0.00 0.00 45 1016.2
20260906164832 95 112 4.0 6.0 0.00 0.00 0.00 47 1016.2
20260906164331 97 150 0.0 1.0 0.00 0.00 0.00 46 1016.2
20260906163827 96 152 0.0 0.0 0.00 0.00 0.00 46 1016.2
20260906163323 94 99 4.0 7.0 0.00 0.00 0.00 48 1016.2
20260906162820 94 164 6.0 8.0 0.00 0.00 0.00 48 1016.2
20260906162320 96 154 1.0 2.0 0.00 0.00 0.00 48 1016.5
20260906161815 96 131 2.0 2.0 0.00 0.00 0.00 47 1016.2
20260906161314 96 123 2.0 3.0 0.00 0.00 0.00 49 1016.5
20260906160813 96 145 0.0 0.0 0.00 0.00 0.00 48 1016.5
20260906160307 94 151 0.0 1.0 0.00 0.00 0.00 51 1016.2
20260906155805 93 147 1.0 2.0 0.00 0.00 0.00 54 1016.5
20260906155300 93 137 1.0 3.0 0.00 0.00 0.00 53 1016.2
20260906154755 91 132 3.0 5.0 0.00 0.00 0.00 55 1016.2
20260906154251 91 147 0.0 1.0 0.00 0.00 0.00 55 1016.2
20260906153749 92 143 1.0 2.0 0.00 0.00 0.00 55 1016.2
20260906153243 91 146 0.0 0.0 0.00 0.00 0.00 56 1016.2
20260906152738 89 170 2.0 3.0 0.00 0.00 0.00 59 1016.2
20260906152233 90 123 2.0 2.0 0.00 0.00 0.00 59 1016.2
20260906151732 89 150 2.0 3.0 0.00 0.00 0.00 59 1016.2
20260906151228 90 146 0.0 1.0 0.00 0.00 0.00 58 1016.2
20260906150724 89 149 1.0 1.0 0.00 0.00 0.00 60 1016.2
20260906150219 90 142 0.0 0.0 0.00 0.00 0.00 59 1016.2
20260906145717 90 146 2.0 3.0 0.00 0.00 0.00 60 1016.2
20260906145211 90 144 0.0 1.0 0.00 0.00 0.00 60 1016.5
20260906144706 88 148 0.0 0.0 0.00 0.00 0.00 61 1016.5
20260906144201 87 147 1.0 1.0 0.00 0.00 0.00 63 1016.2
20260906143700 86 147 2.0 2.0 0.00 0.00 0.00 64 1016.5
20260906143158 85 142 2.0 2.0 0.00 0.00 0.00 66 1016.2
20260906142652 86 149 0.0 0.0 0.00 0.00 0.00 66 1016.2
20260906142147 85 141 1.0 1.0 0.00 0.00 0.00 67 1016.5
20260906141646 86 141 1.0 1.0 0.00 0.00 0.00 67 1016.5
20260906141141 85 144 0.0 0.0 0.00 0.00 0.00 68 1016.2
20260906140640 86 147 0.0 0.0 0.00 0.00 0.00 67 1016.2
20260906140135 84 149 0.0 0.0 0.00 0.00 0.00 69 1016.2
20260906135632 84 144 0.0 1.0 0.00 0.00 0.00 69 1016.5
20260906135128 84 146 0.0 0.0 0.00 0.00 0.00 70 1016.2
20260906134624 84 148 0.0 0.0 0.00 0.00 0.00 70 1016.2
20260906134119 84 149 0.0 0.0 0.00 0.00 0.00 71 1015.9
20260906133615 83 145 0.0 0.0 0.00 0.00 0.00 71 1016.2
20260906133115 81 147 0.0 0.0 0.00 0.00 0.00 74 1015.9
20260906132610 80 142 0.0 1.0 0.00 0.00 0.00 75 1016.2
20260906132106 79 146 0.0 0.0 0.00 0.00 0.00 76 1016.2
20260906131601 80 144 0.0 0.0 0.00 0.00 0.00 76 1016.2
20260906131056 79 145 0.0 0.0 0.00 0.00 0.00 76 1015.9
20260906130556 77 146 0.0 0.0 0.00 0.00 0.00 79 1016.2
20260906130052 76 151 0.0 0.0 0.00 0.00 0.00 82 1015.9
20260906125549 75 151 0.0 0.0 0.00 0.00 0.00 84 1015.9
20260906125048 74 152 0.0 0.0 0.00 0.00 0.00 86 1015.9
20260906124544 74 155 0.0 0.0 0.00 0.00 0.00 86 1015.9
20260906124039 73 155 0.0 0.0 0.00 0.00 0.00 86 1015.9
20260906123538 73 157 0.0 0.0 0.00 0.00 0.00 87 1015.9
20260906123034 73 157 0.0 0.0 0.00 0.00 0.00 87 1015.5
20260906122533 73 156 0.0 0.0 0.00 0.00 0.00 87 1015.5
20260906122029 73 155 0.0 0.0 0.00 0.00 0.00 87 1015.2
20260906121525 73 156 0.0 0.0 0.00 0.00 0.00 87 1015.2
20260906121022 73 155 0.0 0.0 0.00 0.00 0.00 87 1015.2
20260906120522 73 155 0.0 0.0 0.00 0.00 0.00 87 1015.2
20260906120019 73 154 0.0 0.0 0.00 0.00 0.00 87 1015.2
20260906115514 73 154 0.0 0.0 0.00 0.00 0.00 87 1015.2
20260906115008 73 154 0.0 0.0 0.00 0.00 0.00 86 1015.2
20260906114502 73 154 0.0 0.0 0.00 0.00 0.00 86 1015.2
20260906113958 73 154 0.0 0.0 0.00 0.00 0.00 86 1015.5
20260906113457 73 154 0.0 0.0 0.00 0.00 0.00 86 1015.2
20260906112952 73 157 0.0 0.0 0.00 0.00 0.00 86 1015.2
20260906112448 73 155 0.0 0.0 0.00 0.00 0.00 85 1015.2
20260906111943 74 155 0.0 0.0 0.00 0.00 0.00 85 1014.8
20260906111442 74 155 0.0 0.0 0.00 0.00 0.00 85 1015.2
20260906110938 74 155 0.0 0.0 0.00 0.00 0.00 85 1015.2
20260906110433 73 154 0.0 0.0 0.00 0.00 0.00 85 1014.8
20260906105932 74 154 0.0 0.0 0.00 0.00 0.00 85 1014.8
20260906105428 74 154 0.0 0.0 0.00 0.00 0.00 85 1014.8
20260906104924 74 154 0.0 0.0 0.00 0.00 0.00 84 1014.5
20260906104422 74 154 0.0 0.0 0.00 0.00 0.00 84 1014.5
20260906103922 75 154 0.0 0.0 0.00 0.00 0.00 84 1014.8
20260906103420 75 156 0.0 0.0 0.00 0.00 0.00 84 1014.8
20260906102916 75 155 0.0 0.0 0.00 0.00 0.00 83 1014.8
20260906102415 75 154 0.0 0.0 0.00 0.00 0.00 82 1014.8
20260906101910 75 155 0.0 0.0 0.00 0.00 0.00 82 1014.8
20260906101405 75 155 0.0 0.0 0.00 0.00 0.00 82 1014.5
20260906100901 75 157 0.0 0.0 0.00 0.00 0.00 82 1014.8
20260906100400 75 161 0.0 0.0 0.00 0.00 0.00 82 1014.8
20260906095854 75 155 0.0 0.0 0.00 0.00 0.00 82 1014.8
20260906095350 75 155 0.0 0.0 0.00 0.00 0.00 81 1014.5
20260906094844 76 155 0.0 0.0 0.00 0.00 0.00 80 1014.8
20260906094339 76 154 0.0 0.0 0.00 0.00 0.00 80 1014.8
20260906093835 76 154 0.0 0.0 0.00 0.00 0.00 80 1014.8
20260906093331 76 154 0.0 0.0 0.00 0.00 0.00 80 1014.8
20260906092826 77 154 0.0 0.0 0.00 0.00 0.00 79 1014.5
20260906092325 76 157 0.0 0.0 0.00 0.00 0.00 79 1014.5
20260906091821 76 157 0.0 0.0 0.00 0.00 0.00 79 1014.5
20260906091317 77 155 0.0 0.0 0.00 0.00 0.00 79 1014.5
20260906090814 77 154 0.0 0.0 0.00 0.00 0.00 78 1014.5
20260906090312 77 155 0.0 0.0 0.00 0.00 0.00 78 1014.5
20260906085812 77 155 0.0 0.0 0.00 0.00 0.00 77 1014.5
20260906085307 77 154 0.0 0.0 0.00 0.00 0.00 78 1014.5
20260906084800 77 155 0.0 0.0 0.00 0.00 0.00 78 1014.5
20260906084300 77 156 0.0 0.0 0.00 0.00 0.00 77 1014.5
20260906083755 77 155 0.0 0.0 0.00 0.00 0.00 77 1014.1
20260906083251 77 155 0.0 0.0 0.00 0.00 0.00 77 1014.1
20260906082745 77 150 0.0 0.0 0.00 0.00 0.00 77 1014.5
20260906082240 78 148 0.0 0.0 0.00 0.00 0.00 76 1014.1
20260906081737 78 154 0.0 0.0 0.00 0.00 0.00 76 1014.1
20260906081231 78 154 0.0 0.0 0.00 0.00 0.00 76 1014.1
20260906080727 78 154 0.0 0.0 0.00 0.00 0.00 76 1014.1
20260906080224 78 154 0.0 0.0 0.00 0.00 0.00 76 1014.1
20260906075717 78 154 0.0 0.0 0.00 0.00 0.00 76 1014.5
20260906075212 78 151 0.0 0.0 0.00 0.00 0.00 75 1014.5
20260906074707 78 150 0.0 0.0 0.00 0.00 0.00 75 1014.1
20260906074207 78 155 0.0 0.0 0.00 0.00 0.00 76 1014.5
20260906073702 78 157 0.0 0.0 0.00 0.00 0.00 75 1014.5
20260906073157 78 155 0.0 0.0 0.00 0.00 0.00 75 1014.1
20260906072652 79 157 0.0 0.0 0.00 0.00 0.00 74 1014.5
20260906072148 79 157 0.0 0.0 0.00 0.00 0.00 74 1014.1
20260906071644 80 154 0.0 0.0 0.00 0.00 0.00 73 1014.5
20260906071143 80 154 0.0 0.0 0.00 0.00 0.00 72 1014.1
20260906070640 81 154 0.0 0.0 0.00 0.00 0.00 71 1014.1
20260906070136 81 154 0.0 0.0 0.00 0.00 0.00 71 1014.5
20260906065635 81 157 0.0 1.0 0.00 0.00 0.00 71 1014.5
20260906065131 81 169 1.0 2.0 0.00 0.00 0.00 71 1014.5
20260906064626 82 151 0.0 0.0 0.00 0.00 0.00 69 1014.5
20260906064121 82 151 0.0 0.0 0.00 0.00 0.00 68 1014.8
20260906063616 83 151 0.0 0.0 0.00 0.00 0.00 67 1014.8
20260906063112 84 155 0.0 0.0 0.00 0.00 0.00 66 1014.5
20260906062608 84 154 0.0 0.0 0.00 0.00 0.00 65 1014.8
20260906062106 83 164 1.0 2.0 0.00 0.00 0.00 65 1014.8
20260906061603 83 150 1.0 2.0 0.00 0.00 0.00 66 1015.2
20260906061102 82 157 0.0 0.0 0.00 0.00 0.00 69 1014.8
20260906060559 82 157 0.0 0.0 0.00 0.00 0.00 69 1015.2
20260906060056 82 154 0.0 0.0 0.00 0.00 0.00 68 1015.2
20260906055551 83 151 0.0 0.0 0.00 0.00 0.00 67 1015.2
20260906055046 84 151 0.0 0.0 0.00 0.00 0.00 66 1015.2
20260906054541 84 154 0.0 0.0 0.00 0.00 0.00 66 1015.2
20260906054036 84 157 0.0 0.0 0.00 0.00 0.00 65 1015.2
20260906053533 85 156 0.0 0.0 0.00 0.00 0.00 64 1015.2
20260906053028 85 151 0.0 0.0 0.00 0.00 0.00 64 1015.2
20260906052524 85 150 0.0 0.0 0.00 0.00 0.00 64 1014.8
20260906052021 85 154 1.0 1.0 0.00 0.00 0.00 64 1014.8
20260906051516 85 149 3.0 3.0 0.00 0.00 0.00 64 1014.8
20260906051011 85 150 3.0 3.0 0.00 0.00 0.00 64 1014.8
20260906050506 85 163 1.0 2.0 0.00 0.00 0.00 63 1014.8
20260906050000 85 137 5.0 6.0 0.00 0.00 0.00 63 1014.8
20260906045458 85 131 3.0 5.0 0.00 0.00 0.00 63 1014.8
20260906044955 86 120 3.0 5.0 0.00 0.00 0.00 63 1015.2
20260906044449 85 146 4.0 6.0 0.00 0.00 0.00 63 1014.8
20260906043946 85 147 3.0 3.0 0.00 0.00 0.00 63 1014.8
20260906043441 86 146 3.0 3.0 0.00 0.00 0.00 62 1014.8
20260906042937 86 140 4.0 5.0 0.00 0.00 0.00 62 1014.8
20260906042436 86 150 4.0 5.0 0.00 0.00 0.00 62 1014.8
20260906041931 86 144 3.0 3.0 0.00 0.00 0.00 62 1014.8
20260906041427 86 141 4.0 5.0 0.00 0.00 0.00 61 1014.5
20260906040926 86 147 2.0 2.0 0.00 0.00 0.00 60 1014.8
20260906040422 86 136 2.0 2.0 0.00 0.00 0.00 60 1014.5
20260906035917 86 150 2.0 2.0 0.00 0.00 0.00 59 1014.5
20260906035412 87 137 3.0 3.0 0.00 0.00 0.00 58 1014.5
20260906034908 87 136 3.0 3.0 0.00 0.00 0.00 58 1014.5
20260906034402 87 151 3.0 3.0 0.00 0.00 0.00 57 1014.8
20260906033858 87 128 6.0 8.0 0.00 0.00 0.00 56 1014.5
20260906033357 87 145 3.0 3.0 0.00 0.00 0.00 56 1014.5
20260906032853 87 137 2.0 3.0 0.00 0.00 0.00 55 1014.5
20260906032349 87 140 3.0 5.0 0.00 0.00 0.00 54 1014.5
20260906031844 88 143 5.0 7.0 0.00 0.00 0.00 53 1014.1
20260906031339 87 147 4.0 5.0 0.00 0.00 0.00 53 1014.1
20260906030839 87 136 3.0 3.0 0.00 0.00 0.00 53 1014.1
20260906030335 87 136 3.0 3.0 0.00 0.00 0.00 53 1014.5
20260906025829 86 134 4.0 7.0 0.00 0.00 0.00 53 1014.1
20260906025323 87 149 1.0 1.0 0.00 0.00 0.00 54 1014.1
20260906024822 87 150 1.0 1.0 0.00 0.00 0.00 53 1014.1
20260906024321 87 151 0.0 0.0 0.00 0.00 0.00 53 1013.7
20260906023817 87 150 0.0 0.0 0.00 0.00 0.00 53 1013.7
20260906023312 87 151 0.0 0.0 0.00 0.00 0.00 52 1013.7
20260906022808 88 152 0.0 0.0 0.00 0.00 0.00 51 1013.4
20260906022306 88 154 0.0 0.0 0.00 0.00 0.00 51 1013.7
20260906021759 88 155 0.0 1.0 0.00 0.00 0.00 51 1013.4
20260906021258 89 154 0.0 0.0 0.00 0.00 0.00 50 1013.4
20260906020753 89 150 0.0 0.0 0.00 0.00 0.00 49 1013.4
20260906020253 89 151 0.0 0.0 0.00 0.00 0.00 49 1013.4
20260906015753 90 152 0.0 0.0 0.00 0.00 0.00 49 1013.4
20260906015251 90 150 0.0 1.0 0.00 0.00 0.00 48 1013.1
20260906014746 90 154 1.0 1.0 0.00 0.00 0.00 48 1013.1
20260906014241 90 150 1.0 2.0 0.00 0.00 0.00 48 1013.1
20260906013737 91 152 0.0 0.0 0.00 0.00 0.00 47 1013.1
20260906013237 91 140 1.0 1.0 0.00 0.00 0.00 47 1012.7
20260906012733 92 144 1.0 2.0 0.00 0.00 0.00 46 1012.7
20260906012228 92 142 3.0 3.0 0.00 0.00 0.00 45 1012.7
20260906011723 93 142 1.0 2.0 0.00 0.00 0.00 45 1012.7
20260906011223 93 133 3.0 3.0 0.00 0.00 0.00 45 1012.7
20260906010718 93 150 2.0 2.0 0.00 0.00 0.00 44 1012.7
20260906010214 93 147 2.0 3.0 0.00 0.00 0.00 44 1012.7
20260906005709 94 143 2.0 2.0 0.00 0.00 0.00 43 1012.7
20260906005209 94 138 2.0 3.0 0.00 0.00 0.00 43 1012.4
20260906004707 95 147 3.0 3.0 0.00 0.00 0.00 42 1012.7
20260906004203 95 135 1.0 2.0 0.00 0.00 0.00 41 1012.4
20260906003658 95 119 3.0 5.0 0.00 0.00 0.00 41 1012.4
20260906003153 96 129 2.0 2.0 0.00 0.00 0.00 40 1012.4
20260906002648 96 151 0.0 1.0 0.00 0.00 0.00 40 1012.4
20260906002143 96 117 4.0 6.0 0.00 0.00 0.00 39 1012.4
20260906001638 96 144 7.0 8.0 0.00 0.00 0.00 39 1012.4
20260906001138 97 136 8.0 9.0 0.00 0.00 0.00 39 1012.4
20260906000633 97 152 2.0 2.0 0.00 0.00 0.00 38 1012.4
20260906000129 97 140 4.0 5.0 0.00 0.00 0.00 38 1012.4
20260905235627 97 165 7.0 8.0 0.00 0.00 0.00 38 1012.4
20260905235123 98 147 4.0 5.0 0.00 0.00 0.00 37 1012.0
20260905234618 98 169 3.0 3.0 0.00 0.00 0.00 37 1012.0
20260905234114 98 159 4.0 5.0 0.00 0.00 0.00 37 1012.0
20260905233608 98 135 6.0 8.0 0.00 0.00 0.00 37 1012.0
20260905233102 98 143 3.0 3.0 0.00 0.00 0.00 37 1012.0
20260905232558 99 154 0.0 0.0 0.00 0.00 0.00 35 1012.0
20260905232053 98 147 7.0 8.0 0.00 0.00 0.00 35 1012.0
20260905231548 99 150 4.0 6.0 0.00 0.00 0.00 35 1012.0
20260905231045 99 124 5.0 7.0 0.00 0.00 0.00 35 1012.0
20260905230544 99 121 1.0 2.0 0.00 0.00 0.00 35 1012.0
20260905230043 99 140 5.0 7.0 0.00 0.00 0.00 36 1012.0
20260905225537 99 136 1.0 1.0 0.00 0.00 0.00 35 1012.0
20260905225033 98 154 5.0 6.0 0.00 0.00 0.00 36 1012.0
20260905224532 99 151 2.0 2.0 0.00 0.00 0.00 35 1011.7
20260905224032 99 137 5.0 6.0 0.00 0.00 0.00 34 1012.0
20260905223530 99 152 7.0 9.0 0.00 0.00 0.00 34 1012.0
20260905223025 100 148 3.0 3.0 0.00 0.00 0.00 35 1012.0
20260905222525 100 129 5.0 6.0 0.00 0.00 0.00 34 1012.0
20260905222020 100 155 7.0 8.0 0.00 0.00 0.00 35 1012.0
20260905221517 100 122 7.0 8.0 0.00 0.00 0.00 34 1012.0
20260905221013 100 140 1.0 2.0 0.00 0.00 0.00 33 1012.0